Time,TemperatureF,DewpointF,PressureIn,WindDirection,WindDirectionDegrees,WindSpeedMPH,WindSpeedGustMPH,Humidity,HourlyPrecipIn,Conditions,Clouds,dailyrainin,SolarRadiationWatts/m^2,SoftwareType,DateUTC
2013-01-01 00:03:00,46.0,26.0,30.35,SSW,206,7.0,15.0,45,0.00,,,-99.99,0.000000,,2013-01-01 05:03:00,
2013-01-01 00:12:00,46.0,26.0,30.35,SSW,206,7.0,15.0,45,0.00,,,-99.99,0.000000,,2013-01-01 05:12:00,
2013-01-01 00:33:00,47.0,26.0,30.34,SW,226,9.0,14.0,43,0.00,,,-99.99,0.000000,,2013-01-01 05:33:00,
2013-01-01 00:42:00,47.0,26.0,30.34,SW,226,9.0,14.0,43,0.00,,,-99.99,0.000000,,2013-01-01 05:42:00,
2013-01-01 00:53:00,47.0,26.0,30.34,SW,226,9.0,14.0,43,0.00,,,-99.99,0.000000,,2013-01-01 05:53:00,
2013-01-01 01:02:00,47.0,26.0,30.34,SW,226,9.0,14.0,43,0.00,,,-99.99,0.000000,,2013-01-01 06:02:00,
2013-01-01 01:12:00,47.0,26.0,30.34,SW,226,9.0,14.0,43,0.00,,,-99.99,0.000000,,2013-01-01 06:12:00,
2013-01-01 01:33:00,48.0,25.0,30.30,SSW,213,8.0,16.0,41,0.00,,,-99.99,0.000000,,2013-01-01 06:33:00,
2013-01-01 01:43:00,48.0,25.0,30.30,SSW,213,8.0,16.0,41,0.00,,,-99.99,0.000000,,2013-01-01 06:43:00,
2013-01-01 01:52:00,48.0,25.0,30.30,SSW,213,8.0,16.0,41,0.00,,,-99.99,0.000000,,2013-01-01 06:52:00,
2013-01-01 02:02:00,48.0,25.0,30.30,SSW,213,8.0,16.0,41,0.00,,,-99.99,0.000000,,2013-01-01 07:02:00,
2013-01-01 02:12:00,48.0,25.0,30.30,SSW,213,8.0,16.0,41,0.00,,,-99.99,0.000000,,2013-01-01 07:12:00,
2013-01-01 02:32:00,47.0,27.0,30.28,SSW,206,5.0,14.0,45,0.00,,,-99.99,0.000000,,2013-01-01 07:32:00,
2013-01-01 02:42:00,47.0,27.0,30.28,SSW,206,5.0,14.0,45,0.00,,,-99.99,0.000000,,2013-01-01 07:42:00,
2013-01-01 02:53:00,47.0,27.0,30.28,SSW,206,5.0,14.0,45,0.00,,,-99.99,0.000000,,2013-01-01 07:53:00,
2013-01-01 03:02:00,47.0,27.0,30.28,SSW,206,5.0,14.0,45,0.00,,,-99.99,0.000000,,2013-01-01 08:02:00,
2013-01-01 03:12:00,47.0,27.0,30.28,SSW,206,5.0,14.0,45,0.00,,,-99.99,0.000000,,2013-01-01 08:12:00,
2013-01-01 03:42:00,46.0,27.0,30.30,SSW,208,6.0,12.0,48,0.00,,,-99.99,0.000000,,2013-01-01 08:42:00,
2013-01-01 03:53:00,46.0,27.0,30.30,SSW,208,6.0,12.0,48,0.00,,,-99.99,0.000000,,2013-01-01 08:53:00,
2013-01-01 04:02:00,46.0,27.0,30.30,SSW,208,6.0,12.0,48,0.00,,,-99.99,0.000000,,2013-01-01 09:02:00,
2013-01-01 04:12:00,46.0,27.0,30.30,SSW,208,6.0,12.0,48,0.00,,,-99.99,0.000000,,2013-01-01 09:12:00,
2013-01-01 04:32:00,44.0,27.0,30.28,SW,231,4.0,10.0,51,0.00,,,-99.99,0.000000,,2013-01-01 09:32:00,
2013-01-01 04:42:00,44.0,27.0,30.28,SW,231,4.0,10.0,51,0.00,,,-99.99,0.000000,,2013-01-01 09:42:00,
2013-01-01 04:52:00,44.0,27.0,30.28,SW,231,4.0,10.0,51,0.00,,,-99.99,0.000000,,2013-01-01 09:52:00,
2013-01-01 05:02:00,44.0,27.0,30.28,SW,231,4.0,10.0,51,0.00,,,-99.99,0.000000,,2013-01-01 10:02:00,
2013-01-01 05:12:00,44.0,27.0,30.28,SW,231,4.0,10.0,51,0.00,,,-99.99,0.000000,,2013-01-01 10:12:00,
2013-01-01 05:33:00,44.0,28.0,30.28,WSW,253,3.0,8.0,53,0.00,,,-99.99,0.000000,,2013-01-01 10:33:00,
2013-01-01 05:43:00,44.0,28.0,30.28,WSW,253,3.0,8.0,53,0.00,,,-99.99,0.000000,,2013-01-01 10:43:00,
2013-01-01 05:53:00,44.0,28.0,30.28,WSW,253,3.0,8.0,53,0.00,,,-99.99,0.000000,,2013-01-01 10:53:00,
2013-01-01 06:02:00,44.0,28.0,30.28,WSW,253,3.0,8.0,53,0.00,,,-99.99,0.000000,,2013-01-01 11:02:00,
2013-01-01 06:12:00,44.0,28.0,30.28,WSW,253,3.0,8.0,53,0.00,,,-99.99,0.000000,,2013-01-01 11:12:00,
2013-01-01 06:33:00,45.0,32.0,30.29,WSW,254,1.0,5.0,59,0.00,,,-99.99,0.000000,,2013-01-01 11:33:00,
2013-01-01 06:43:00,45.0,32.0,30.29,WSW,254,1.0,5.0,59,0.00,,,-99.99,0.000000,,2013-01-01 11:43:00,
2013-01-01 06:53:00,45.0,32.0,30.29,WSW,254,1.0,5.0,59,0.00,,,-99.99,0.000000,,2013-01-01 11:53:00,
2013-01-01 07:03:00,45.0,32.0,30.29,WSW,254,1.0,5.0,59,0.00,,,-99.99,0.000000,,2013-01-01 12:03:00,
2013-01-01 07:12:00,45.0,32.0,30.29,WSW,254,1.0,5.0,59,0.00,,,-99.99,0.000000,,2013-01-01 12:12:00,
2013-01-01 07:43:00,42.0,33.0,30.31,SW,217,1.0,3.0,70,0.00,,,-99.99,0.000000,,2013-01-01 12:43:00,
2013-01-01 07:53:00,42.0,33.0,30.31,SW,217,1.0,3.0,70,0.00,,,-99.99,0.000000,,2013-01-01 12:53:00,
2013-01-01 08:03:00,42.0,33.0,30.31,SW,217,1.0,3.0,70,0.00,,,-99.99,0.000000,,2013-01-01 13:03:00,
2013-01-01 08:12:00,42.0,33.0,30.31,SW,217,1.0,3.0,70,0.00,,,-99.99,0.000000,,2013-01-01 13:12:00,
2013-01-01 08:33:00,43.0,32.0,30.31,South,179,5.0,9.0,66,0.00,,,-99.99,0.000000,,2013-01-01 13:33:00,
2013-01-01 08:43:00,43.0,32.0,30.31,South,179,5.0,9.0,66,0.00,,,-99.99,0.000000,,2013-01-01 13:43:00,
2013-01-01 08:53:00,43.0,32.0,30.31,South,179,5.0,9.0,66,0.00,,,-99.99,0.000000,,2013-01-01 13:53:00,
2013-01-01 09:02:00,43.0,32.0,30.31,South,179,5.0,9.0,66,0.00,,,-99.99,0.000000,,2013-01-01 14:02:00,
2013-01-01 09:12:00,43.0,32.0,30.31,South,179,5.0,9.0,66,0.00,,,-99.99,0.000000,,2013-01-01 14:12:00,
2013-01-01 09:43:00,43.0,38.0,30.32,WSW,246,4.0,13.0,83,0.02,,,-99.99,15.000000,,2013-01-01 14:43:00,
2013-01-01 09:53:00,43.0,38.0,30.32,WSW,246,4.0,13.0,83,0.02,,,-99.99,15.000000,,2013-01-01 14:53:00,
2013-01-01 10:03:00,43.0,38.0,30.32,WSW,246,4.0,13.0,83,0.02,,,-99.99,15.000000,,2013-01-01 15:03:00,
2013-01-01 10:12:00,43.0,38.0,30.32,WSW,246,4.0,13.0,83,0.02,,,-99.99,15.000000,,2013-01-01 15:12:00,
2013-01-01 10:33:00,43.0,41.0,30.30,SSW,201,5.0,12.0,91,0.01,,,-99.99,51.000000,,2013-01-01 15:33:00,
2013-01-01 10:43:00,43.0,41.0,30.30,SSW,201,5.0,12.0,91,0.01,,,-99.99,51.000000,,2013-01-01 15:43:00,
2013-01-01 10:53:00,43.0,41.0,30.30,SSW,201,5.0,12.0,91,0.01,,,-99.99,51.000000,,2013-01-01 15:53:00,
2013-01-01 11:02:00,43.0,41.0,30.30,SSW,201,5.0,12.0,91,0.01,,,-99.99,51.000000,,2013-01-01 16:02:00,
2013-01-01 11:12:00,43.0,41.0,30.30,SSW,201,5.0,12.0,91,0.01,,,-99.99,51.000000,,2013-01-01 16:12:00,
2013-01-01 11:33:00,46.0,44.0,30.27,SSW,199,6.0,14.0,92,0.00,,,-99.99,75.000000,,2013-01-01 16:33:00,
2013-01-01 11:43:00,46.0,44.0,30.27,SSW,199,6.0,14.0,92,0.00,,,-99.99,75.000000,,2013-01-01 16:43:00,
2013-01-01 11:53:00,46.0,44.0,30.27,SSW,199,6.0,14.0,92,0.00,,,-99.99,75.000000,,2013-01-01 16:53:00,
2013-01-01 12:02:00,46.0,44.0,30.27,SSW,199,6.0,14.0,92,0.00,,,-99.99,75.000000,,2013-01-01 17:02:00,
2013-01-01 12:12:00,46.0,44.0,30.27,SSW,199,6.0,14.0,92,0.00,,,-99.99,75.000000,,2013-01-01 17:12:00,
2013-01-01 12:33:00,45.0,42.0,30.23,SSW,203,7.0,16.0,89,0.00,,,-99.99,62.000000,,2013-01-01 17:33:00,
2013-01-01 12:43:00,45.0,42.0,30.23,SSW,203,7.0,16.0,89,0.00,,,-99.99,62.000000,,2013-01-01 17:43:00,
2013-01-01 12:53:00,45.0,42.0,30.23,SSW,203,7.0,16.0,89,0.00,,,-99.99,62.000000,,2013-01-01 17:53:00,
2013-01-01 13:03:00,45.0,42.0,30.23,SSW,203,7.0,16.0,89,0.00,,,-99.99,62.000000,,2013-01-01 18:03:00,
2013-01-01 13:13:00,45.0,42.0,30.23,SSW,203,7.0,16.0,89,0.00,,,-99.99,62.000000,,2013-01-01 18:13:00,
2013-01-01 13:33:00,45.0,43.0,30.23,SW,223,6.0,17.0,93,0.01,,,-99.99,47.000000,,2013-01-01 18:33:00,
2013-01-01 13:43:00,45.0,43.0,30.23,SW,223,6.0,17.0,93,0.01,,,-99.99,47.000000,,2013-01-01 18:43:00,
2013-01-01 13:53:00,45.0,43.0,30.23,SW,223,6.0,17.0,93,0.01,,,-99.99,47.000000,,2013-01-01 18:53:00,
2013-01-01 14:02:00,45.0,43.0,30.23,SW,223,6.0,17.0,93,0.01,,,-99.99,47.000000,,2013-01-01 19:02:00,
2013-01-01 14:12:00,45.0,43.0,30.23,SW,223,6.0,17.0,93,0.01,,,-99.99,47.000000,,2013-01-01 19:12:00,
2013-01-01 14:33:00,48.0,47.0,30.19,SSW,196,7.0,14.0,98,0.02,,,-99.99,82.000000,,2013-01-01 19:33:00,
2013-01-01 14:43:00,48.0,47.0,30.19,SSW,196,7.0,14.0,98,0.02,,,-99.99,82.000000,,2013-01-01 19:43:00,
2013-01-01 14:53:00,48.0,47.0,30.19,SSW,196,7.0,14.0,98,0.02,,,-99.99,82.000000,,2013-01-01 19:53:00,
2013-01-01 15:02:00,48.0,47.0,30.19,SSW,196,7.0,14.0,98,0.02,,,-99.99,82.000000,,2013-01-01 20:02:00,
2013-01-01 15:13:00,48.0,47.0,30.19,SSW,196,7.0,14.0,98,0.02,,,-99.99,82.000000,,2013-01-01 20:13:00,
2013-01-01 15:43:00,49.0,49.0,30.19,SSW,199,5.0,15.0,99,0.02,,,-99.99,61.000000,,2013-01-01 20:43:00,
2013-01-01 15:53:00,49.0,49.0,30.19,SSW,199,5.0,15.0,99,0.02,,,-99.99,61.000000,,2013-01-01 20:53:00,
2013-01-01 16:03:00,49.0,49.0,30.19,SSW,199,5.0,15.0,99,0.02,,,-99.99,61.000000,,2013-01-01 21:03:00,
2013-01-01 16:13:00,49.0,49.0,30.19,SSW,199,5.0,15.0,99,0.02,,,-99.99,61.000000,,2013-01-01 21:13:00,
2013-01-01 16:33:00,49.0,49.0,30.20,NW,321,4.0,11.0,99,0.03,,,-99.99,36.000000,,2013-01-01 21:33:00,
2013-01-01 16:43:00,49.0,49.0,30.20,NW,321,4.0,11.0,99,0.03,,,-99.99,36.000000,,2013-01-01 21:43:00,
2013-01-01 16:53:00,49.0,49.0,30.20,NW,321,4.0,11.0,99,0.03,,,-99.99,36.000000,,2013-01-01 21:53:00,
2013-01-01 17:03:00,49.0,49.0,30.20,NW,321,4.0,11.0,99,0.03,,,-99.99,36.000000,,2013-01-01 22:03:00,
2013-01-01 17:12:00,49.0,49.0,30.20,NW,321,4.0,11.0,99,0.03,,,-99.99,36.000000,,2013-01-01 22:12:00,
2013-01-01 17:33:00,49.0,49.0,30.22,SW,232,3.0,13.0,99,0.03,,,-99.99,7.000000,,2013-01-01 22:33:00,
2013-01-01 17:43:00,49.0,49.0,30.22,SW,232,3.0,13.0,99,0.03,,,-99.99,7.000000,,2013-01-01 22:43:00,
2013-01-01 17:53:00,49.0,49.0,30.22,SW,232,3.0,13.0,99,0.03,,,-99.99,7.000000,,2013-01-01 22:53:00,
2013-01-01 18:03:00,49.0,49.0,30.22,SW,232,3.0,13.0,99,0.03,,,-99.99,7.000000,,2013-01-01 23:03:00,
2013-01-01 18:12:00,49.0,49.0,30.22,SW,232,3.0,13.0,99,0.03,,,-99.99,7.000000,,2013-01-01 23:12:00,
2013-01-01 18:33:00,49.0,49.0,30.21,SSW,198,4.0,8.0,99,0.02,,,-99.99,0.000000,,2013-01-01 23:33:00,
2013-01-01 18:42:00,49.0,49.0,30.21,SSW,198,4.0,8.0,99,0.02,,,-99.99,0.000000,,2013-01-01 23:42:00,
2013-01-01 18:53:00,49.0,49.0,30.21,SSW,198,4.0,8.0,99,0.02,,,-99.99,0.000000,,2013-01-01 23:53:00,
2013-01-01 19:03:00,49.0,49.0,30.21,SSW,198,4.0,8.0,99,0.02,,,-99.99,0.000000,,2013-01-02 00:03:00,
2013-01-01 19:12:00,49.0,49.0,30.21,SSW,198,4.0,8.0,99,0.02,,,-99.99,0.000000,,2013-01-02 00:12:00,
2013-01-01 19:33:00,49.0,49.0,30.21,SSW,197,5.0,9.0,99,0.03,,,0.19,0.000000,,2013-01-02 00:33:00,
2013-01-01 19:43:00,49.0,49.0,30.21,SSW,197,5.0,9.0,99,0.03,,,0.19,0.000000,,2013-01-02 00:43:00,
2013-01-01 19:53:00,49.0,49.0,30.21,SSW,197,5.0,9.0,99,0.03,,,0.19,0.000000,,2013-01-02 00:53:00,
2013-01-01 20:02:00,49.0,49.0,30.21,SSW,197,5.0,9.0,99,0.03,,,0.19,0.000000,,2013-01-02 01:02:00,
2013-01-01 20:12:00,49.0,49.0,30.21,SSW,197,5.0,9.0,99,0.03,,,0.19,0.000000,,2013-01-02 01:12:00,
2013-01-01 20:42:00,49.0,49.0,30.22,SSW,192,3.0,7.0,99,0.03,,,0.22,0.000000,,2013-01-02 01:42:00,
2013-01-01 20:53:00,49.0,49.0,30.22,SSW,192,3.0,7.0,99,0.03,,,0.22,0.000000,,2013-01-02 01:53:00,
2013-01-01 21:02:00,49.0,49.0,30.22,SSW,192,3.0,7.0,99,0.03,,,0.22,0.000000,,2013-01-02 02:02:00,
2013-01-01 21:12:00,49.0,49.0,30.22,SSW,192,3.0,7.0,99,0.03,,,0.22,0.000000,,2013-01-02 02:12:00,
2013-01-01 21:32:00,48.0,48.0,30.22,SSW,205,5.0,9.0,99,0.04,,,0.26,0.000000,,2013-01-02 02:32:00,
2013-01-01 21:43:00,48.0,48.0,30.22,SSW,205,5.0,9.0,99,0.04,,,0.26,0.000000,,2013-01-02 02:43:00,
2013-01-01 21:53:00,48.0,48.0,30.22,SSW,205,5.0,9.0,99,0.04,,,0.26,0.000000,,2013-01-02 02:53:00,
2013-01-01 22:02:00,48.0,48.0,30.22,SSW,205,5.0,9.0,99,0.04,,,0.26,0.000000,,2013-01-02 03:02:00,
2013-01-01 22:12:00,48.0,48.0,30.22,SSW,205,5.0,9.0,99,0.04,,,0.26,0.000000,,2013-01-02 03:12:00,
2013-01-01 22:42:00,48.0,48.0,30.21,SW,216,3.0,6.0,99,0.01,,,0.27,0.000000,,2013-01-02 03:42:00,
2013-01-01 22:53:00,48.0,48.0,30.21,SW,216,3.0,6.0,99,0.01,,,0.27,0.000000,,2013-01-02 03:53:00,
2013-01-01 23:03:00,48.0,48.0,30.21,SW,216,3.0,6.0,99,0.01,,,0.27,0.000000,,2013-01-02 04:03:00,
2013-01-01 23:12:00,48.0,48.0,30.21,SW,216,3.0,6.0,99,0.01,,,0.27,0.000000,,2013-01-02 04:12:00,
2013-01-01 23:33:00,49.0,49.0,30.20,North,357,1.0,5.0,99,0.04,,,0.31,0.000000,,2013-01-02 04:33:00,
2013-01-01 23:42:00,49.0,49.0,30.20,North,357,1.0,5.0,99,0.04,,,0.31,0.000000,,2013-01-02 04:42:00,
2013-01-01 23:53:00,49.0,49.0,30.20,North,357,1.0,5.0,99,0.04,,,0.31,0.000000,,2013-01-02 04:53:00,